Location: Festilli
(46.4000°N, 11.6667°E)
Time: 17:07:14
(UTC+00:00)

ATLAS CENTAUR R/B - Pass Details

Date: 03 March 2021
Orbit: 475 x 670 km, 64.7° (Epoch: 30 March)

Event Time Altitude Azimuth Distance (km) Brightness Sun altitude
Rises 19:58:28 0° 260° (W) 2,520 5.5 -30.5°
Reaches altitude 10° 20:01:11 10° 282° (WNW) 1,648 4.6 -30.9°
Enters shadow 20:03:16 17° 317° (NW) 1,301 3.9 -31.2°
